Regional Weather Roundup
Issued by NWS

Home | Current Version | Previous Version | Text Only | Print | Product List | Glossary Off
Versions: 1 2 3 4 5 6 7 8 9 10 11 12 13 14 15 16 17 18 19 20 21 22 23 24 25 26 27 28 29 30 31 32 33 34 35 36 37 38 39 40 41 42 43 44 45 46 47 48 49 50

000
ASUS43 KLMK 191602
RWRKY
KENTUCKY REGIONAL WEATHER ROUNDUP
NATIONAL WEATHER SERVICE LOUISVILLE KY
1200 PM EDT SAT APR 19 2014

NOTE "FAIR" INDICATES FEW OR NO CLOUDS BELOW 12,000 FEET
WITH NO SIGNIFICANT WEATHER AND/OR OBSTRUCTIONS TO VISIBILITY.

KYZ001>023-026-027-061>063-070>075-191700-
WESTERN AND SOUTH CENTRAL KENTUCKY

CITY           SKY/WX    TMP DP  RH WIND       PRES   REMARKS
PADUCAH        SUNNY     72  46  39 E9        30.25S
HENDERSON      SUNNY     64  45  48 E9        30.27S
OWENSBORO      SUNNY     68  42  38 E14       30.27F
HOPKINSVILLE   SUNNY     70  43  37 NE9       30.24S
BOWLING GREEN  SUNNY     70  43  37 NE15      30.24F
GLASGOW        NOT AVBL
$$

KYZ024-025-028>034-038-045-046-053-191700-
NORTH CENTRAL KENTUCKY

CITY           SKY/WX    TMP DP  RH WIND       PRES   REMARKS
LOUISVILLE/SDF MOSUNNY   70  42  36 NE12      30.27F
LOUISVILLE/LOU SUNNY     70  40  33 NE12      30.28F
FORT KNOX      SUNNY     68  42  38 NE12      30.26F
$$

KYZ035>037-039>044-047>052-055>060-089>105-191700-
NORTHEAST KENTUCKY

CITY           SKY/WX    TMP DP  RH WIND       PRES   REMARKS
LEXINGTON      SUNNY     67  45  45 NE16      30.27F
COVINGTON      SUNNY     63  42  46 E12       30.31S
FRANKFORT      SUNNY     66  43  43 E13       30.27F
$$

KYZ054-064>069-076>088-106>120-191700-
SOUTHEAST KENTUCKY

CITY           SKY/WX    TMP DP  RH WIND       PRES   REMARKS
JACKSON        SUNNY     71  37  28 VRB6      30.24F
LONDON         MOSUNNY   69  37  30 N15G23    30.21F
SOMERSET       NOT AVBL
MIDDLESBORO    NOT AVBL
MONTICELLO     MOSUNNY   68  44  41 N12       30.23F
$$




USA.gov is the U.S. government's official web portal to all federal, state and local government web resources and services.